Погода в Верхней Троице

Россия / Тверская область     57°15′05″N   37°08′35″E
темп.,
°C
ветер,
м/с
пор.,
м/с
влажн.,
%
обл.,
%
осадки,
мм/ч
давл.,
гПа
погр.,
м
14 апреля, ср
ср1400:00+10ююв3107242 0.0 1021163
03:00+10ююв311748 0.0 1020228
06:00+10ююв31176100 0.0 1019232
09:00+14ю51266100 0.0 1018632
12:00+18ююз5954100 0.0 10181417
15:00+19ююз51049100 0.0 10172164
18:00+16юз3760100 0.8 1017251
21:00+12ююз227892 1.5 101829
15 апреля, чт
чт1500:00+10с3595100 0.2 101896
03:00+8ссв5893100 0.2 1019364
06:00+6ссв4993100 0.0 1020394
09:00+7ссв51086100 0.0 1021421
12:00+9св6979100 0.0 1021597
15:00+8св61079100 0.0 1022704
18:00+7св61181100 0.0 1023741
21:00+6св61382100 0.0 1024683
16 апреля, пт
пт1600:00+5св61482100 0.0 1024623
03:00+4всв61383100 0.0 1025569
06:00+4всв51385100 0.0 1025548
09:00+6всв61170100 0.0 1026598
12:00+10всв685886 0.0 1026889
15:00+12всв6851100 0.0 10261135
18:00+10всв51049100 0.0 1027883
21:00+7всв41356100 0.0 1028460
17 апреля, сб
сб1700:00+5всв5136696 0.0 1029428
03:00+4всв4127075 0.0 1029351
06:00+2всв4137327 0.0 1030363
09:00+7всв510535 0.0 1031633
12:00+11всв68376 0.0 10301158
15:00+13всв57365 0.0 10301398
18:00+11всв47445 0.0 1030865
21:00+6св39645 0.0 1030173
18 апреля, вс
вс1800:00+5всв39705 0.0 1031189
03:00+3всв38785 0.0 1031139
06:00+2всв27815 0.0 1032151
09:00+8всв36590 0.0 1032469
12:00+12всв46445 0.0 10311633
15:00+13всв46395 0.0 10302018
18:00+12в364640 0.0 1030662
21:00+7св236721 0.0 103152